Location: Black Swamp Observatory
(41.3920°N, 84.1250°W)
Time: 05:16:25
(UTC-04:00)

Courier 1B Rocket - Pass Details

Date: 27 January 2022
Orbit: 920 x 1202 km, 28.2° (Epoch: 28 May)

Event Time Altitude Azimuth Distance (km) Brightness Sun altitude
Exits shadow 05:26:07 17° 195° (SSW) 2,282 6.8 -27.5°
Drops below altitude 10° 05:29:50 10° 160° (SSE) 2,724 7.6 -26.8°
Sets 05:33:21 0° 142° (SE) 3,624 8.5 -26.1°
